FDX5819 RJBB-ZBAA

Flight info

Callsign FDX5819
Flight time N/A
Altitude 34000
Route SOUJA Y324 STAGE Y38 SAPRA G585 SEL G597 ANSIM Y697 NOGON/K0906S1040 DCT DONVO DCT GUMED DCT DOVIV W55 DUMAP DUMAP9Z
Aircraft B77L/H-SDE1E2E3FGHIJ2J3J4J5M1RWXY/LB1D1

Departure

Time 2026-05-07 06:58
Airport Kansai International Airport (RJBB)

Arrival

Time N/A
Airport Beijing Capital International Airport (ZBAA)
Time Latitude Longitude Altitude Speed Heading
2026-05-07 06:22 34.43389 135.22559 32 ft 0 kts 231°
2026-05-07 06:46 34.43401 135.22575 60 ft 4 kts 230°
2026-05-07 06:46 34.43417 135.22600 47 ft 4 kts 242°
2026-05-07 06:46 34.43423 135.22628 28 ft 4 kts 288°
2026-05-07 06:47 34.43410 135.22653 29 ft 3 kts 321°
2026-05-07 06:47 34.43406 135.22657 31 ft 0 kts 321°
2026-05-07 06:51 34.43410 135.22652 29 ft 2 kts 321°
2026-05-07 06:51 34.43438 135.22625 33 ft 10 kts 321°
2026-05-07 06:51 34.43506 135.22576 33 ft 12 kts 350°
2026-05-07 06:52 34.43586 135.22582 33 ft 12 kts 355°
2026-05-07 06:52 34.43658 135.22537 33 ft 12 kts 325°
2026-05-07 06:52 34.43720 135.22476 33 ft 12 kts 321°
2026-05-07 06:52 34.43787 135.22423 33 ft 12 kts 344°
2026-05-07 06:53 34.43859 135.22457 33 ft 12 kts 35°
2026-05-07 06:53 34.43913 135.22539 33 ft 18 kts 52°
2026-05-07 06:53 34.44015 135.22690 33 ft 24 kts 51°
2026-05-07 06:53 34.44122 135.22852 33 ft 24 kts 51°
2026-05-07 06:54 34.44230 135.23011 33 ft 24 kts 49°
2026-05-07 06:54 34.44341 135.23166 33 ft 24 kts 49°
2026-05-07 06:54 34.44449 135.23323 33 ft 24 kts 52°
2026-05-07 06:54 34.44550 135.23485 34 ft 24 kts 52°
2026-05-07 06:55 34.44658 135.23643 34 ft 24 kts 51°
2026-05-07 06:55 34.44764 135.23803 35 ft 24 kts 52°
2026-05-07 06:55 34.44870 135.23963 36 ft 24 kts 50°
2026-05-07 06:55 34.44951 135.24073 36 ft 16 kts 36°
2026-05-07 06:56 34.45039 135.24061 36 ft 12 kts 321°
2026-05-07 06:56 34.45104 135.23994 36 ft 12 kts 308°
2026-05-07 06:56 34.45096 135.23955 36 ft 4 kts 229°
2026-05-07 06:56 34.45002 135.23821 36 ft 53 kts 230°
2026-05-07 06:57 34.44596 135.23223 34 ft 128 kts 231°
2026-05-07 06:57 34.43913 135.22174 87 ft 179 kts 234°
2026-05-07 06:57 34.43163 135.20965 270 ft 182 kts 233°
2026-05-07 06:57 34.42411 135.19727 509 ft 187 kts 238°
2026-05-07 06:58 34.42101 135.18195 963 ft 197 kts 280°
2026-05-07 06:58 34.42232 135.16604 1658 ft 193 kts 259°
2026-05-07 06:58 34.42010 135.14950 1983 ft 210 kts 261°
2026-05-07 06:58 34.41812 135.13087 2208 ft 235 kts 262°
2026-05-07 06:59 34.41622 135.11061 2643 ft 249 kts 267°
2026-05-07 06:59 34.41987 135.08996 3256 ft 259 kts 298°
2026-05-07 06:59 34.43229 135.07396 3955 ft 269 kts 328°
2026-05-07 06:59 34.45034 135.06774 4672 ft 277 kts
2026-05-07 07:00 34.46919 135.07264 5322 ft 280 kts 17°
2026-05-07 07:00 34.48797 135.07985 6001 ft 285 kts 17°
2026-05-07 07:00 34.50718 135.08428 6618 ft 283 kts 354°
2026-05-07 07:00 34.52640 135.07947 7148 ft 285 kts 342°
2026-05-07 07:01 34.54585 135.07366 7814 ft 289 kts 344°
2026-05-07 07:01 34.56553 135.06826 8550 ft 292 kts 345°
2026-05-07 07:01 34.58441 135.06002 9128 ft 289 kts 322°
2026-05-07 07:01 34.59804 135.04260 9740 ft 285 kts 296°
2026-05-07 07:02 34.60551 135.02051 10301 ft 286 kts 285°
2026-05-07 07:02 34.61116 134.99712 10493 ft 304 kts 277°
2026-05-07 07:02 34.61255 134.97090 10651 ft 321 kts 269°
2026-05-07 07:02 34.61283 134.94280 10831 ft 345 kts 269°
2026-05-07 07:03 34.61307 134.91299 11240 ft 359 kts 269°
2026-05-07 07:03 34.61337 134.88229 11863 ft 368 kts 269°
2026-05-07 07:03 34.61373 134.85111 12672 ft 371 kts 269°
2026-05-07 07:03 34.61415 134.81960 13526 ft 375 kts 269°
2026-05-07 07:04 34.61461 134.78782 14249 ft 379 kts 270°
2026-05-07 07:04 34.61508 134.75619 14966 ft 382 kts 270°
2026-05-07 07:04 34.61558 134.72383 15709 ft 384 kts 270°
2026-05-07 07:04 34.61608 134.69127 16438 ft 387 kts 270°
2026-05-07 07:05 34.61658 134.65849 17160 ft 390 kts 270°
2026-05-07 07:05 34.61707 134.62548 17872 ft 393 kts 270°
2026-05-07 07:05 34.61756 134.59221 18537 ft 396 kts 270°
2026-05-07 07:05 34.61804 134.55874 19132 ft 399 kts 270°
2026-05-07 07:06 34.61852 134.52492 19707 ft 402 kts 270°
2026-05-07 07:06 34.61899 134.49085 20279 ft 405 kts 270°
2026-05-07 07:06 34.61946 134.45651 20865 ft 409 kts 270°
2026-05-07 07:06 34.61992 134.42190 21436 ft 412 kts 270°
2026-05-07 07:07 34.62037 134.38691 21968 ft 416 kts 270°
2026-05-07 07:07 34.62082 134.35163 22525 ft 419 kts 270°
2026-05-07 07:07 34.62127 134.31611 23076 ft 422 kts 270°
2026-05-07 07:07 34.62170 134.28035 23592 ft 426 kts 270°
2026-05-07 07:08 34.62213 134.24420 24021 ft 429 kts 270°
2026-05-07 07:08 34.62255 134.20793 24470 ft 432 kts 269°
2026-05-07 07:08 34.62296 134.17130 24931 ft 434 kts 269°
2026-05-07 07:08 34.62336 134.13497 25377 ft 437 kts 269°
2026-05-07 07:09 34.62375 134.09793 25810 ft 440 kts 269°
2026-05-07 07:09 34.62414 134.06051 26248 ft 443 kts 269°
2026-05-07 07:09 34.62451 134.02293 26695 ft 446 kts 269°
2026-05-07 07:09 34.62487 133.98592 27113 ft 449 kts 269°
2026-05-07 07:10 34.62523 133.94785 27513 ft 452 kts 269°
2026-05-07 07:10 34.62559 133.90941 27906 ft 456 kts 269°
2026-05-07 07:10 34.62594 133.87079 28303 ft 459 kts 269°
2026-05-07 07:10 34.62627 133.83198 28690 ft 461 kts 269°
2026-05-07 07:11 34.62733 133.79307 29027 ft 463 kts 275°
2026-05-07 07:11 34.63547 133.75488 29254 ft 474 kts 289°
2026-05-07 07:11 34.65080 133.71919 29610 ft 481 kts 300°
2026-05-07 07:11 34.67190 133.68804 29948 ft 487 kts 313°
2026-05-07 07:12 34.69727 133.66054 30227 ft 491 kts 315°
2026-05-07 07:12 34.72316 133.63347 30635 ft 490 kts 315°
2026-05-07 07:12 34.74893 133.60661 31168 ft 486 kts 315°
2026-05-07 07:12 34.77440 133.57983 31690 ft 483 kts 315°
2026-05-07 07:13 34.79961 133.55298 32142 ft 481 kts 314°
2026-05-07 07:13 34.82467 133.52599 32529 ft 481 kts 314°
2026-05-07 07:13 34.84968 133.49886 32932 ft 480 kts 314°
2026-05-07 07:13 34.87450 133.47183 33412 ft 477 kts 314°
2026-05-07 07:14 34.89915 133.44494 33877 ft 474 kts 314°
2026-05-07 07:14 34.92382 133.41800 33917 ft 479 kts 314°
2026-05-07 07:14 34.97360 133.36357 33920 ft 480 kts 314°
2026-05-07 07:15 35.02309 133.30949 33915 ft 477 kts 313°
2026-05-07 07:15 35.07210 133.25585 33921 ft 475 kts 314°
2026-05-07 07:16 35.12126 133.20192 33932 ft 476 kts 313°
2026-05-07 07:16 35.17058 133.14770 33927 ft 478 kts 313°
2026-05-07 07:17 35.22008 133.09323 33927 ft 479 kts 313°
2026-05-07 07:17 35.26970 133.03853 33899 ft 481 kts 313°
2026-05-07 07:18 35.31891 132.98418 33893 ft 481 kts 313°
2026-05-07 07:18 35.36860 132.92921 33889 ft 481 kts 313°
2026-05-07 07:19 35.41816 132.87429 33888 ft 480 kts 313°
2026-05-07 07:19 35.46756 132.81944 33896 ft 479 kts 313°
2026-05-07 07:20 35.51688 132.76459 33884 ft 478 kts 313°
2026-05-07 07:20 35.56262 132.70673 33909 ft 465 kts 298°
2026-05-07 07:21 35.58918 132.63571 33903 ft 454 kts 281°
2026-05-07 07:21 35.59959 132.55975 33912 ft 451 kts 275°
2026-05-07 07:22 35.60876 132.48379 33922 ft 453 kts 275°
2026-05-07 07:22 35.61835 132.40711 33921 ft 455 kts 276°
2026-05-07 07:23 35.62821 132.33020 33921 ft 456 kts 276°
2026-05-07 07:23 35.63813 132.25315 33915 ft 457 kts 276°
2026-05-07 07:24 35.64801 132.17603 33934 ft 456 kts 276°
2026-05-07 07:24 35.65781 132.09897 33915 ft 456 kts 276°
2026-05-07 07:25 35.67229 131.98435 33910 ft 454 kts 276°
2026-05-07 07:26 35.68193 131.90758 33912 ft 453 kts 276°
2026-05-07 07:26 35.69142 131.83154 33903 ft 453 kts 276°
2026-05-07 07:27 35.70093 131.75490 33922 ft 452 kts 276°
2026-05-07 07:27 35.71037 131.67853 33906 ft 451 kts 276°
2026-05-07 07:28 35.71973 131.60234 33906 ft 450 kts 276°
2026-05-07 07:28 35.72901 131.52638 33917 ft 448 kts 276°
2026-05-07 07:29 35.73821 131.45065 33901 ft 447 kts 276°
2026-05-07 07:29 35.74735 131.37499 33900 ft 446 kts 276°
2026-05-07 07:30 35.75491 131.31222 33910 ft 446 kts 276°
2026-05-07 07:30 35.76396 131.23660 33898 ft 446 kts 276°
2026-05-07 07:31 35.77294 131.16111 33895 ft 445 kts 276°
2026-05-07 07:31 35.78187 131.08568 33902 ft 445 kts 275°
2026-05-07 07:32 35.79077 131.01006 33892 ft 445 kts 275°
2026-05-07 07:32 35.79950 130.93554 33891 ft 445 kts 275°
2026-05-07 07:33 35.80828 130.86010 33896 ft 445 kts 275°
2026-05-07 07:33 35.81696 130.78516 33869 ft 445 kts 275°
2026-05-07 07:34 35.82569 130.70974 33885 ft 445 kts 276°
2026-05-07 07:34 35.83520 130.63432 33890 ft 446 kts 276°
2026-05-07 07:35 35.84498 130.55875 33885 ft 447 kts 276°
2026-05-07 07:35 35.85463 130.48310 33886 ft 447 kts 276°
2026-05-07 07:36 35.86418 130.40732 33885 ft 447 kts 276°
2026-05-07 07:36 35.87364 130.33172 33877 ft 445 kts 276°
2026-05-07 07:37 35.88302 130.25636 33873 ft 444 kts 276°
2026-05-07 07:37 35.89232 130.18125 33865 ft 442 kts 275°
2026-05-07 07:38 35.90152 130.10653 33846 ft 440 kts 276°
2026-05-07 07:38 35.91066 130.03188 33863 ft 439 kts 276°
2026-05-07 07:39 35.91965 129.95819 33866 ft 440 kts 275°
2026-05-07 07:39 35.92871 129.88351 33862 ft 440 kts 275°
2026-05-07 07:40 35.93772 129.80872 33856 ft 441 kts 275°
2026-05-07 07:40 35.94656 129.73431 33850 ft 441 kts 275°
2026-05-07 07:41 35.95539 129.65953 33845 ft 440 kts 275°
2026-05-07 07:41 35.96418 129.58481 33845 ft 439 kts 275°
2026-05-07 07:42 35.97527 129.51082 33844 ft 441 kts 284°
2026-05-07 07:42 35.99877 129.44055 33844 ft 445 kts 292°
2026-05-07 07:43 36.03265 129.37608 33839 ft 449 kts 300°
2026-05-07 07:43 36.06940 129.31376 33851 ft 448 kts 300°
2026-05-07 07:44 36.10564 129.25174 33843 ft 447 kts 300°
2026-05-07 07:44 36.14166 129.18925 33839 ft 446 kts 299°
2026-05-07 07:45 36.17758 129.12652 33834 ft 448 kts 299°
2026-05-07 07:45 36.21356 129.06362 33841 ft 447 kts 299°
2026-05-07 07:46 36.24948 129.00073 33837 ft 446 kts 299°
2026-05-07 07:46 36.28483 128.93874 33834 ft 445 kts 299°
2026-05-07 07:47 36.32046 128.87614 33861 ft 444 kts 298°
2026-05-07 07:47 36.35599 128.81363 33845 ft 443 kts 298°
2026-05-07 07:48 36.39153 128.75117 33851 ft 443 kts 298°
2026-05-07 07:48 36.42678 128.68906 33843 ft 443 kts 298°
2026-05-07 07:49 36.46230 128.62631 33853 ft 443 kts 298°
2026-05-07 07:49 36.49765 128.56380 33840 ft 442 kts 298°
2026-05-07 07:50 36.53296 128.50121 33842 ft 442 kts 298°
2026-05-07 07:50 36.56817 128.43870 33851 ft 440 kts 297°
2026-05-07 07:51 36.60326 128.37624 33833 ft 440 kts 297°
2026-05-07 07:51 36.63830 128.31388 33837 ft 439 kts 297°
2026-05-07 07:52 36.67354 128.25227 33850 ft 440 kts 298°
2026-05-07 07:52 36.70911 128.19016 33879 ft 440 kts 298°
2026-05-07 07:53 36.74457 128.12797 33847 ft 440 kts 297°
2026-05-07 07:53 36.77996 128.06588 33843 ft 439 kts 297°
2026-05-07 07:54 36.81520 128.00380 33839 ft 438 kts 297°
2026-05-07 07:54 36.84998 127.94250 33877 ft 438 kts 297°
2026-05-07 07:55 36.88497 127.88007 33866 ft 439 kts 297°
2026-05-07 07:55 36.92005 127.81736 33863 ft 441 kts 297°
2026-05-07 07:56 36.95539 127.75448 33854 ft 443 kts 297°
2026-05-07 07:56 36.99099 127.69153 33875 ft 443 kts 297°
2026-05-07 07:57 37.02625 127.62891 33874 ft 444 kts 297°
2026-05-07 07:57 37.06167 127.56533 33868 ft 445 kts 297°
2026-05-07 07:58 37.09703 127.50164 33879 ft 445 kts 297°
2026-05-07 07:58 37.13238 127.43800 33898 ft 441 kts 296°
2026-05-07 07:59 37.16704 127.37543 33895 ft 436 kts 296°
2026-05-07 07:59 37.20160 127.31276 33893 ft 438 kts 296°
2026-05-07 08:00 37.23626 127.24986 33904 ft 439 kts 296°
2026-05-07 08:00 37.27094 127.18681 33919 ft 438 kts 296°
2026-05-07 08:01 37.30529 127.12429 33922 ft 436 kts 296°
2026-05-07 08:01 37.33987 127.06175 33914 ft 435 kts 296°
2026-05-07 08:02 37.37438 126.99966 33914 ft 433 kts 296°
2026-05-07 08:02 37.40130 126.93528 33928 ft 412 kts 280°
2026-05-07 08:03 37.41392 126.86536 33914 ft 409 kts 270°
2026-05-07 08:03 37.41418 126.79386 33915 ft 410 kts 265°
2026-05-07 08:04 37.41330 126.72215 33934 ft 411 kts 265°
2026-05-07 08:04 37.41278 126.65021 33919 ft 410 kts 265°
2026-05-07 08:05 37.41241 126.57865 33908 ft 409 kts 265°
2026-05-07 08:05 37.41199 126.50712 33917 ft 408 kts 265°
2026-05-07 08:06 37.41147 126.43569 33918 ft 409 kts 265°
2026-05-07 08:06 37.41090 126.36421 33901 ft 408 kts 265°
2026-05-07 08:07 37.41031 126.29348 33911 ft 406 kts 265°
2026-05-07 08:07 37.40967 126.22261 33931 ft 405 kts 266°
2026-05-07 08:08 37.40899 126.15179 33918 ft 404 kts 266°
2026-05-07 08:08 37.40827 126.08119 33879 ft 403 kts 265°
2026-05-07 08:09 37.40751 126.01060 33906 ft 404 kts 265°
2026-05-07 08:09 37.40671 125.94052 33912 ft 406 kts 265°
2026-05-07 08:10 37.40586 125.86939 33910 ft 407 kts 265°
2026-05-07 08:10 37.40497 125.79812 33908 ft 408 kts 265°
2026-05-07 08:11 37.40404 125.72666 33934 ft 409 kts 265°
2026-05-07 08:11 37.40307 125.65557 33914 ft 409 kts 265°
2026-05-07 08:12 37.40211 125.58416 33904 ft 407 kts 265°
2026-05-07 08:12 37.40117 125.51310 33907 ft 406 kts 265°
2026-05-07 08:13 37.40018 125.44217 33918 ft 405 kts 265°
2026-05-07 08:13 37.39914 125.37144 33906 ft 404 kts 265°
2026-05-07 08:14 37.39808 125.30089 33909 ft 403 kts 265°
2026-05-07 08:14 37.39696 125.23046 33951 ft 403 kts 265°
2026-05-07 08:15 37.39580 125.15996 33923 ft 402 kts 265°
2026-05-07 08:15 37.39461 125.08961 33915 ft 402 kts 265°
2026-05-07 08:16 37.39339 125.01938 33878 ft 401 kts 265°
2026-05-07 08:16 37.39215 124.95048 33923 ft 401 kts 265°
2026-05-07 08:17 37.39085 124.88030 33929 ft 402 kts 265°
2026-05-07 08:17 37.38971 124.82135 33926 ft 402 kts 265°
2026-05-07 08:18 37.38828 124.75089 33926 ft 403 kts 265°
2026-05-07 08:18 37.38682 124.68090 33935 ft 403 kts 265°
2026-05-07 08:19 37.38532 124.61044 33935 ft 402 kts 265°
2026-05-07 08:19 37.38378 124.54018 33931 ft 402 kts 265°
2026-05-07 08:20 37.38222 124.47007 33987 ft 401 kts 266°
2026-05-07 08:20 37.38571 124.39987 33934 ft 403 kts 272°
2026-05-07 08:21 37.39595 124.33028 33932 ft 406 kts 277°
2026-05-07 08:21 37.40828 124.26106 33937 ft 405 kts 277°
2026-05-07 08:22 37.42054 124.19196 33964 ft 405 kts 277°
2026-05-07 08:22 37.43264 124.12285 33941 ft 404 kts 277°
2026-05-07 08:23 37.44460 124.05395 33947 ft 403 kts 277°
2026-05-07 08:23 37.45634 123.98600 33947 ft 402 kts 276°
2026-05-07 08:24 37.46808 123.91778 33964 ft 401 kts 277°
2026-05-07 08:24 37.47983 123.84928 33951 ft 399 kts 277°
2026-05-07 08:25 37.49150 123.78103 33951 ft 398 kts 277°
2026-05-07 08:25 37.50309 123.71300 33959 ft 397 kts 276°
2026-05-07 08:26 37.52031 123.61133 33967 ft 395 kts 277°
2026-05-07 08:26 37.53173 123.54371 33957 ft 394 kts 277°
2026-05-07 08:27 37.54306 123.47626 33961 ft 393 kts 277°
2026-05-07 08:27 37.55433 123.40901 33961 ft 392 kts 276°
2026-05-07 08:28 37.56555 123.34175 33968 ft 392 kts 276°
2026-05-07 08:28 37.57702 123.27490 33967 ft 393 kts 277°
2026-05-07 08:29 37.58886 123.20759 33970 ft 394 kts 277°
2026-05-07 08:29 37.60068 123.14011 34017 ft 394 kts 277°
2026-05-07 08:30 37.61246 123.07244 33982 ft 395 kts 277°
2026-05-07 08:30 37.62419 123.00467 33977 ft 395 kts 277°
2026-05-07 08:31 37.63575 122.93761 33984 ft 395 kts 277°